Location: Unspecified
(0.0000°N, 0.0000°E)
Time: 20:16:19
(UTC+00:00)

Altair - Visible Passes

Search period start: 22 September 2014 00:00
Search period end: 02 October 2014 00:00
Orbit: 1502 x 1682 km, 47.2° (Epoch: 22 September)

Date Brightness Start Highest point End Pass type
(mag) Time Alt. Az. Time Alt. Az. Time Alt. Az.
22 Sep 9.0 18:53:04 10° NNE 18:56:06 12° NE 18:57:30 11° NE visible
22 Sep 8.8 20:51:58 10° NNW 20:55:34 27° NNW 20:55:34 27° NNW visible
23 Sep 8.2 20:26:55 10° NNW 20:32:22 39° NNW 20:32:22 39° NNW visible
24 Sep 7.7 20:01:53 10° NNW 20:09:17 50° NNE 20:09:17 50° NNE visible
25 Sep 7.5 19:36:53 10° NNW 19:45:53 50° NE 19:46:19 50° ENE visible
25 Sep 9.4 21:42:21 10° WNW 21:44:25 17° W 21:44:25 17° W visible
26 Sep 7.7 19:11:55 10° NNW 19:20:45 45° NE 19:23:31 36° E visible
26 Sep 8.8 21:16:53 10° WNW 21:21:37 28° W 21:21:37 28° W visible
27 Sep 7.9 18:46:59 10° NNW 18:55:37 40° NE 19:00:51 22° ESE visible
27 Sep 8.3 20:51:29 10° WNW 20:58:58 41° WSW 20:58:58 41° WSW visible
28 Sep 8.0 18:22:05 10° NNW 18:30:28 35° NE 18:38:22 11° ESE visible
28 Sep 8.1 20:26:07 10° WNW 20:34:57 48° SW 20:36:30 44° SSW visible
29 Sep 9.8 05:10:04 10° SSE 05:14:33 14° SE 05:19:04 10° ESE visible
29 Sep 8.2 17:57:12 10° N 18:05:18 31° NE 18:13:09 10° ESE visible
29 Sep 7.9 20:00:48 10° NW 20:09:50 54° SW 20:14:12 32° S visible
30 Sep 10.0 04:46:15 10° SSE 04:49:17 12° SE 04:52:20 10° ESE visible
30 Sep 7.8 19:35:30 10° NW 19:44:44 60° SW 19:52:04 17° SSE visible
01 Oct 7.7 19:10:15 10° NW 19:19:37 68° SW 19:28:45 10° SSE visible
01 Oct 9.7 21:22:46 10° WSW 21:24:39 11° SW 21:26:32 10° SSW visible
